Location: Newark
(48.2308°N, 120.8549°W)
Time: 02:20:23
(UTC+00:00)

FENGYUN 1C DEB - Pass Details

Date: 07 February 2022
Orbit: 822 x 948 km, 99.2° (Epoch: 28 May)

Event Time Altitude Azimuth Distance (km) Brightness Sun altitude
Rises 04:52:11 0° 211° (SSW) 3,608 ? -36.8°
Reaches altitude 10° 04:55:31 10° 230° (SW) 2,659 ? -37.3°
Maximum altitude 04:59:24 18° 271° (W) 2,144 ? -37.9°
Drops below altitude 10° 05:03:15 10° 312° (NW) 2,634 ? -38.5°
Sets 05:06:34 0° 332° (NNW) 3,559 ? -39.0°
